Regional Weather Roundup
Issued by NWS Nashville, TN

Home | Current Version | Previous Version | Text Only | Print | Product List | Glossary On
Versions: 1 2 3 4 5 6 7 8 9 10 11 12 13 14 15 16 17 18 19 20 21 22 23 24 25 26 27 28
000
ASUS44 KOHX 201810
RWROHX
MIDDLE TENNESSEE HOURLY WEATHER ROUNDUP
NATIONAL WEATHER SERVICE NASHVILLE TN
1200 PM CST FRI JAN 20 2017

NOTE: "FAIR" INDICATES FEW OR NO CLOUDS BELOW 12,000 FEET WITH
NO SIGNIFICANT WEATHER AND/OR OBSTRUCTIONS TO VISIBILITY.

* THESE REPORTS ARE NOT UNDER NWS QUALITY CONTROL AND MAY NOT
  REPORT WEATHER SUCH AS PRECIPITATION AND FOG.


TNZ005>011-023>034-057-059-062>066-078-080-201900
...NORTHERN MIDDLE TENNESSEE...

CITY           SKY/WX    TMP DP  RH WIND       PRES   REMARKS
CLARKSVILLE    CLOUDY    59  53  80 S10       29.76F
CROSSVILLE     PTSUNNY   60  49  66 VRB7      29.84F
GALLATIN       PTSUNNY   64  55  72 SW8       29.81F
DICKSON          N/A     60  56  87 SW7       29.76
LEBANON        MOSUNNY   65  54  67 SW8       29.76F
NASHVILLE      PTSUNNY   66  53  63 S10       29.78F
PORTLAND       CLOUDY    61  55  82 SW7       29.78F
SMYRNA         PTSUNNY   65  54  67 SW9       29.79F
SPRINGFIELD    CLOUDY    61  55  82 SW9       29.76F
WEST NASHVILLE PTSUNNY   63  54  72 SW12      29.76F
$$
TNZ056-058-060-061-075>077-079-093>097-201900
...SOUTHERN MIDDLE TENNESSEE...

CITY           SKY/WX    TMP DP  RH WIND       PRES   REMARKS
COLUMBIA       CLOUDY    64  64 100 S12       29.76F
MCMINNVILLE    PTSUNNY   64  54  68 SW9       29.81F
SHELBYVILLE    MOSUNNY   66  57  72 S15       29.80F
TULLAHOMA      CLOUDY    63  54  72 SW12      29.81F
WINCHESTER     PTSUNNY   64  54  68 S7        29.82F
$$


...KEY TO REMARKS...
VSB - VISIBILITY IN MILES
WCI - WIND CHILL INDEX
HX  - HEAT INDEX





USA.gov is the U.S. government's official web portal to all federal, state and local government web resources and services.